1499270400.53,33282,18.0,74334.8,6.99,-1.17,0.75,0,*6B
1499270401.77,33283,18.0,74326.8,6.99,-1.21,0.75,0,*6F
1499270403.0,33284,18.0,74326.3,6.99,-1.35,0.43,0,*68
1499270404.22,33285,18.0,74328.8,6.99,-1.55,0.41,0,*6D
1499270405.45,33286,18.0,74330.5,6.97,-1.47,0.41,0,*63
1499270406.65,33287,18.0,74330.0,6.97,-1.33,0.59,0,*68
1499270407.85,33288,18.0,74320.5,6.97,-1.51,0.37,0,*6B
1499270409.1,33289,18.0,74328.3,6.99,-1.43,0.41,0,*66
1499270410.33,33290,18.0,74330.5,6.97,-1.35,0.59,0,*68
1499270411.58,33291,18.0,74330.0,6.99,-1.43,0.33,0,*6A
1499270412.76,33292,18.0,74326.3,6.97,-1.71,-0.03,0,*78
1499270413.94,33293,18.0,74326.0,6.97,-1.75,-0.15,0,*4A
1499270415.16,33294,18.0,74330.5,6.95,-1.71,-0.11,0,*4F
1499270416.34,33295,18.0,74328.8,6.93,-1.55,-0.07,0,*79
1499270417.54,33296,18.0,74330.3,6.93,-1.43,0.05,0,*52
1499270418.74,33297,18.0,74326.0,6.93,-1.25,0.13,0,*64
1499270419.93,33298,18.0,74320.5,6.93,-1.29,0.09,0,*5C
1499270421.11,33299,18.0,74324.0,6.93,-1.29,-0.03,0,*7A
1499270422.3,33300,18.0,74322.3,6.93,-1.25,-0.15,0,*40
1499270423.48,33301,18.0,74326.0,6.93,-1.25,-0.15,0,*41
1499270424.69,33302,18.0,74326.3,6.93,-1.05,-0.07,0,*73
1499270425.92,33303,18.0,74326.8,6.91,-0.89,0.05,0,*6A
1499270427.13,33304,18.0,74324.8,6.91,-0.69,0.09,0,*6F
1499270428.37,33305,18.0,74326.3,6.91,-0.89,-0.15,0,*70
1499270429.56,33306,18.0,74322.8,6.89,-1.17,-0.53,0,*4E
1499270430.81,33307,18.0,74320.0,6.91,-1.05,-0.41,0,*46
1499270432.02,33308,18.0,74322.0,6.91,-0.77,-0.15,0,*7C
1499270433.24,33309,18.0,74322.5,6.91,-0.65,-0.15,0,*7E
1499270434.45,33310,18.0,74320.0,6.93,-1.05,-0.65,0,*44
1499270435.66,33311,18.0,74320.0,6.91,-1.25,-0.77,0,*46
1499270436.89,33312,18.0,74320.3,6.91,-1.17,-0.77,0,*44
1499270438.13,33313,18.0,74320.3,6.91,-1.13,-0.77,0,*41
1499270439.37,33314,18.0,74328.3,6.91,-1.13,-0.77,0,*46
1499270440.63,33315,18.0,74324.3,6.91,-1.35,-0.93,0,*49
1499270441.89,33316,18.0,74320.3,6.91,-1.35,-0.89,0,*41
1499270443.11,33317,18.0,74320.3,6.91,-1.17,-0.77,0,*41
1499270444.32,33318,18.0,74322.0,6.89,-1.09,-0.69,0,*47
1499270445.54,33319,18.0,74320.0,6.91,-1.17,-0.65,0,*4C
1499270446.73,33320,18.0,74326.0,6.93,-1.17,-0.69,0,*48
1499270447.94,33321,18.0,74324.8,6.91,-1.17,-0.65,0,*47
1499270449.17,33322,18.0,74320.0,6.91,-1.51,-0.89,0,*44
1499270450.41,33323,18.0,74318.0,6.91,-1.91,-1.25,0,*7E
1499270451.65,33324,18.0,74322.3,6.91,-1.91,-1.25,0,*79
1499270452.86,33325,18.0,74326.0,6.89,-2.03,-1.29,0,*75
1499270454.08,33326,18.0,74320.5,6.89,-2.27,-1.39,0,*71
1499270455.3,33327,18.0,74324.3,6.89,-2.47,-1.55,0,*7C
1499270456.54,33328,18.0,74322.0,6.87,-2.35,-1.35,0,*7E
1499270457.77,33329,18.0,74320.8,6.87,-2.39,-1.35,0,*73
1499270459.01,33330,18.0,74314.5,6.87,-2.39,-1.35,0,*7B
1499270460.19,33331,18.0,74330.5,6.85,-2.35,-1.25,0,*75
1499270461.46,33332,18.0,74324.3,6.87,-2.51,-1.47,0,*72
1499270462.7,33333,18.0,74322.5,6.85,-2.51,-1.35,0,*74
1499270463.89,33334,18.0,74320.5,6.85,-2.39,-1.21,0,*78
1499270465.12,33335,18.0,74332.0,6.87,-2.35,-1.09,0,*7D
1499270466.35,33336,18.0,74326.3,6.87,-2.35,-0.97,0,*48
1499270467.55,33337,18.0,74326.8,6.85,-2.23,-0.85,0,*4F
1499270468.76,33338,18.0,74324.5,6.85,-2.31,-0.85,0,*43
1499270469.96,33339,18.0,74324.0,6.85,-2.35,-0.89,0,*4A
1499270471.17,33340,18.0,74324.0,6.87,-2.23,-0.73,0,*44
1499270472.4,33341,18.0,74320.0,6.85,-2.71,-1.13,0,*77
1499270473.6,33342,18.0,74324.3,6.85,-2.95,-1.25,0,*7B
1499270474.81,33343,18.0,74320.3,6.85,-3.07,-1.47,0,*74
1499270476.0,33344,18.0,74322.3,6.85,-3.23,-1.51,0,*72
1499270477.21,33345,18.0,74316.5,6.85,-3.23,-1.47,0,*74
1499270478.43,33346,18.0,74318.5,6.85,-3.35,-1.43,0,*74
1499270479.64,33347,18.0,74318.0,6.85,-3.39,-1.43,0,*79
1499270480.88,33348,18.0,74312.5,6.81,-3.43,-1.51,0,*7C
1499270482.12,33349,18.0,74320.8,6.83,-3.51,-1.47,0,*7B
1499270483.39,33350,18.0,74316.8,6.81,-3.43,-1.35,0,*77
1499270484.6,33351,18.0,74316.5,6.81,-3.31,-1.25,0,*72
1499270485.83,33352,18.0,74318.3,6.81,-3.31,-1.13,0,*74
1499270487.07,33353,18.0,74318.8,6.81,-3.27,-1.05,0,*75
1499270488.31,33354,18.0,74316.0,6.81,-3.27,-1.01,0,*76
1499270489.54,33355,18.0,74312.3,6.81,-3.27,-0.93,0,*4D
1499270490.77,33356,18.0,74314.8,6.81,-3.27,-0.89,0,*45
1499270491.98,33357,18.0,74312.5,6.81,-3.27,-0.81,0,*4C
1499270493.19,33358,18.0,74316.5,6.81,-3.27,-0.81,0,*43
1499270494.44,33359,18.0,74314.8,6.81,-3.51,-0.93,0,*40
1499270495.66,33360,18.0,74312.3,6.81,-3.79,-1.25,0,*7C
1499270496.87,33361,18.0,74318.0,6.83,-3.43,-0.81,0,*49
1499270498.08,33362,18.0,74316.3,6.81,-3.39,-0.77,0,*4C
1499270499.33,33363,18.0,74318.8,6.81,-3.51,-0.89,0,*42
1499270500.57,33364,18.0,74318.3,6.81,-3.43,-0.77,0,*47
1499270501.77,33365,18.0,74318.0,6.81,-3.31,-0.65,0,*40
1499270503.0,33366,18.0,74314.5,6.81,-3.55,-0.65,0,*41
1499270504.21,33367,18.0,74318.0,6.83,-3.51,-0.65,0,*46
1499270505.41,33368,18.0,74318.3,6.83,-3.75,-0.77,0,*4C
1499270506.62,33369,18.0,74318.8,6.83,-3.63,-0.65,0,*49
1499270507.85,33370,18.0,74320.8,6.81,-3.63,-0.61,0,*47
1499270509.08,33371,18.0,74320.0,6.81,-3.55,-0.53,0,*42
1499270510.29,33372,18.0,74320.3,6.83,-3.63,-0.53,0,*46
1499270511.52,33373,18.0,74324.5,6.81,-3.63,-0.53,0,*45
1499270512.74,33374,18.0,74324.5,6.83,-3.67,-0.49,0,*4F
1499270513.92,33375,18.0,74326.5,6.83,-3.87,-0.61,0,*4A
1499270515.11,33376,18.0,74320.0,6.85,-3.95,-0.69,0,*44
1499270516.32,33377,18.0,74316.8,6.85,-4.29,-0.85,0,*47
1499270517.51,33378,18.0,74322.5,6.83,-4.45,-0.93,0,*43
1499270518.75,33379,18.0,74318.3,6.81,-4.57,-1.01,0,*79
1499270519.97,33380,18.0,74316.3,6.81,-4.65,-0.93,0,*44
1499270521.18,33381,18.0,74314.5,6.81,-4.53,-0.81,0,*43
1499270522.36,33382,18.0,74316.0,6.83,-4.53,-0.77,0,*4B
1499270523.56,33383,18.0,74318.8,6.81,-4.53,-0.77,0,*48
1499270524.77,33384,18.0,74312.0,6.81,-4.53,-0.53,0,*49
1499270525.97,33385,18.0,74308.5,6.81,-4.41,-0.37,0,*49
1499270527.19,33386,18.0,74312.3,6.81,-4.33,-0.37,0,*4F
1499270528.39,33387,18.0,74312.0,6.79,-4.33,-0.23,0,*4C
1499270529.56,33388,18.0,74312.3,6.79,-4.49,-0.29,0,*44
1499270530.74,33389,18.0,74310.3,6.79,-4.05,0.09,0,*52
1499270531.93,33390,18.0,74316.3,6.79,-4.05,0.17,0,*65
1499270533.13,33391,18.0,74316.3,6.79,-4.09,0.17,0,*68
1499270534.31,33392,18.0,74314.5,6.79,-3.83,0.43,0,*6F
1499270535.52,33393,18.0,74322.0,6.79,-3.95,0.37,0,*6A
1499270536.74,33394,18.0,74320.8,6.81,-4.05,0.33,0,*60
1499270537.97,33395,18.0,74318.8,6.81,-3.87,0.37,0,*68
1499270539.19,33396,18.0,74320.3,6.81,-3.75,0.67,0,*63
1499270540.44,33397,18.0,74320.0,6.81,-3.63,0.67,0,*65
1499270541.69,33398,18.0,74320.8,6.81,-3.55,0.67,0,*6F
1499270542.91,33399,18.0,74322.8,6.79,-3.43,0.75,0,*6D
1499270544.12,33400,18.0,74322.3,6.79,-3.31,0.91,0,*65
1499270545.35,33401,18.0,74322.0,6.81,-3.39,0.71,0,*65
1499270546.57,33402,18.0,74324.0,6.81,-3.55,0.43,0,*6D
1499270547.8,33403,18.0,74316.8,6.81,-3.55,0.43,0,*6C
1499270549.05,33404,18.0,74316.0,6.81,-3.55,0.37,0,*68
1499270550.27,33405,18.0,74316.8,6.81,-3.55,0.43,0,*6A
1499270551.5,33406,18.0,74316.3,6.81,-3.15,0.79,0,*64
1499270552.69,33407,18.0,74316.8,6.81,-2.99,0.97,0,*60
1499270553.89,33408,18.0,74320.3,6.81,-2.87,0.97,0,*60
1499270555.11,33409,18.0,74320.0,6.81,-3.03,0.79,0,*6C
1499270556.37,33410,18.0,74320.0,6.81,-2.75,1.09,0,*52
1499270557.63,33411,18.0,74322.8,6.81,-2.63,1.09,0,*54
1499270558.83,33412,18.0,74320.0,6.83,-2.79,0.79,0,*68
1499270560.06,33413,18.0,74320.8,6.83,-2.75,0.87,0,*64
1499270561.26,33414,18.0,74318.5,6.83,-2.91,0.55,0,*66
1499270562.46,33415,18.0,74316.0,6.83,-2.91,0.55,0,*67
1499270563.67,33416,18.0,74316.3,6.83,-2.87,0.47,0,*60
1499270564.89,33417,18.0,74318.5,6.83,-2.67,0.67,0,*6D
1499270566.13,33418,18.0,74322.3,6.83,-2.63,0.59,0,*6B
1499270567.38,33419,18.0,74320.5,6.81,-2.67,0.55,0,*60
1499270568.61,33420,18.0,74322.5,6.83,-2.67,0.55,0,*68
1499270569.83,33421,18.0,74318.5,6.81,-2.91,0.33,0,*62
1499270571.08,33422,18.0,74322.3,6.81,-2.55,0.59,0,*65
1499270572.28,33423,18.0,74320.3,6.83,-2.39,0.59,0,*6C
1499270573.5,33424,18.0,74322.0,6.81,-2.43,0.59,0,*64
1499270574.72,33425,18.0,74322.3,6.81,-2.43,0.67,0,*68
1499270575.94,33426,18.0,74320.0,6.81,-2.39,0.67,0,*66
1499270577.13,33427,18.0,74316.5,6.81,-2.23,0.97,0,*63
1499270578.39,33428,18.0,74320.8,6.81,-2.11,1.09,0,*5B
1499270579.64,33429,18.0,74320.3,6.81,-1.91,1.21,0,*5B
1499270580.89,33430,18.0,74322.5,6.81,-1.87,1.29,0,*5C
1499270582.15,33431,18.0,74322.0,6.81,-2.11,1.09,0,*53
1499270583.35,33432,18.0,74318.8,6.81,-2.35,0.97,0,*60
1499270584.55,33433,18.0,74314.0,6.81,-2.27,1.05,0,*58
1499270585.8,33434,18.0,74312.5,6.81,-1.91,1.29,0,*5F
1499270587.02,33435,18.0,74306.3,6.81,-1.63,1.55,0,*58
1499270588.22,33436,18.0,74310.5,6.81,-1.51,1.79,0,*54
1499270589.45,33437,18.0,74310.5,6.83,-1.35,1.89,0,*5A
1499270590.67,33438,18.0,74310.8,6.81,-1.51,1.67,0,*55
1499270591.88,33439,18.0,74314.3,6.83,-1.47,1.83,0,*5B
1499270593.1,33440,18.0,74318.3,6.83,-1.35,1.89,0,*5A
1499270594.32,33441,18.0,74320.5,6.83,-1.39,1.83,0,*5D
1499270595.52,33442,18.0,74318.3,6.83,-1.55,1.67,0,*5E
1499270596.72,33443,18.0,74318.8,6.83,-1.55,1.71,0,*58
1499270597.93,33444,18.0,74316.0,6.83,-1.25,1.93,0,*54
1499270599.1,33445,18.0,74322.8,6.83,-1.51,1.83,0,*57
1499270600.33,33446,18.0,74320.3,6.85,-1.35,1.93,0,*51
1499270601.56,33447,18.0,74322.0,6.85,-1.09,2.17,0,*50
1499270602.78,33448,18.0,74322.8,6.83,-1.17,2.05,0,*55
1499270604.02,33449,18.0,74320.5,6.83,-1.01,2.13,0,*54
1499270605.23,33450,18.0,74320.8,6.83,-1.17,2.05,0,*5C
1499270606.43,33451,18.0,74320.0,6.83,-0.89,2.27,0,*6B
1499270607.63,33452,18.0,74320.3,6.83,-0.89,2.27,0,*68
1499270608.84,33453,18.0,74320.0,6.83,-0.77,2.39,0,*67
1499270610.04,33454,18.0,74322.5,6.83,-0.61,2.51,0,*69
1499270611.23,33455,18.0,74324.3,6.83,-0.41,2.65,0,*6D
1499270612.43,33456,18.0,74326.3,6.85,-0.49,2.47,0,*60
1499270613.62,33457,18.0,74322.5,6.85,-0.33,2.69,0,*60
1499270614.86,33458,18.0,74324.5,6.87,-0.23,2.65,0,*60
1499270616.08,33459,18.0,74324.3,6.85,-0.27,2.59,0,*68
1499270617.29,33460,18.0,74324.8,6.85,-0.15,2.59,0,*63
1499270618.48,33461,18.0,74322.8,6.85,-0.27,2.31,0,*6D
1499270619.68,33462,18.0,74314.5,6.85,-0.03,2.55,0,*5A
1499270620.87,33463,18.0,74316.3,6.85,0.05,2.59,0,*7C
1499270622.09,33464,18.0,74312.5,6.85,0.13,2.59,0,*4C
1499270623.31,33465,18.0,74316.3,6.85,0.59,2.77,0,*4F
1499270624.53,33466,18.0,74318.8,6.83,0.71,2.77,0,*40
1499270625.76,33467,18.0,74318.5,6.87,0.97,2.89,0,*4C
1499270626.96,33468,18.0,74316.8,6.85,1.01,2.77,0,*7E
1499270628.23,33469,18.0,74320.3,6.87,1.13,2.77,0,*7E
1499270629.49,33470,18.0,74320.5,6.87,1.33,2.77,0,*74
1499270630.74,33471,18.0,74322.0,6.87,1.43,2.77,0,*72
1499270632.0,33472,18.0,74320.5,6.87,1.55,2.69,0,*79
1499270633.23,33473,18.0,74322.3,6.89,1.89,2.81,0,*71
1499270634.48,33474,18.0,74322.5,6.87,1.93,2.69,0,*75
1499270635.74,33475,18.0,74322.5,6.87,2.17,2.69,0,*7B
1499270636.95,33476,18.0,74318.8,6.89,2.31,2.73,0,*79
1499270638.16,33477,18.0,74320.8,6.91,2.35,2.65,0,*72
1499270639.41,33478,18.0,74322.0,6.91,2.47,2.55,0,*7B
1499270640.67,33479,18.0,74326.5,6.91,2.43,2.43,0,*79
1499270641.91,33480,18.0,74322.8,6.89,2.59,2.43,0,*7D
1499270643.13,33481,18.0,74320.0,6.93,2.73,2.39,0,*72
1499270644.35,33482,18.0,74320.0,6.93,2.73,2.39,0,*71
1499270645.53,33483,18.0,74322.3,6.93,2.65,2.27,0,*78
1499270646.72,33484,18.0,74322.3,6.93,2.77,2.27,0,*7C
1499270647.92,33485,18.0,74320.8,6.93,2.77,2.27,0,*7D
1499270649.17,33486,18.0,74324.3,6.95,2.69,2.09,0,*7B
1499270650.42,33487,18.0,74320.5,6.95,2.51,1.85,0,*76
1499270651.67,33488,18.0,74320.8,6.95,2.59,2.05,0,*7A
1499270652.9,33489,18.0,74320.0,6.95,2.65,2.05,0,*74
1499270654.15,33490,18.0,74320.3,6.95,2.77,2.05,0,*7F
1499270655.4,33491,18.0,74320.0,6.99,2.85,2.13,0,*78
1499270656.65,33492,18.0,74324.8,6.99,2.73,2.13,0,*72
1499270657.87,33493,18.0,74320.3,6.97,2.59,1.97,0,*7A
1499270659.07,33494,18.0,74322.5,6.97,2.27,1.71,0,*7C
1499270660.32,33495,18.0,74316.3,7.03,2.17,1.67,0,*75
1499270661.57,33496,18.0,74316.0,7.03,2.13,1.51,0,*77
1499270662.82,33497,18.0,74312.8,7.03,2.05,1.55,0,*75
1499270664.02,33498,18.0,74314.8,6.99,1.79,1.41,0,*75
1499270665.27,33499,18.0,74318.0,6.99,1.85,1.51,0,*76
1499270666.5,33500,18.0,74316.8,7.03,1.75,1.43,0,*79
1499270667.72,33501,18.0,74314.0,7.03,1.79,1.55,0,*73
1499270668.95,33502,18.0,74312.8,7.03,1.75,1.51,0,*78
1499270670.2,33503,18.0,74316.0,7.03,1.67,1.51,0,*7A
1499270671.45,33504,18.0,74312.8,7.03,1.67,1.51,0,*7D
1499270672.7,33505,18.0,74318.0,7.03,1.63,1.55,0,*7C
1499270673.92,33506,18.0,74318.0,7.05,1.67,1.63,0,*78
1499270675.15,33507,18.0,74316.8,7.03,1.67,1.75,0,*78
1499270676.34,33508,18.0,74312.5,7.05,1.41,1.43,0,*70
1499270677.6,33509,18.0,74314.0,7.03,1.21,1.33,0,*76
1499270678.83,33510,18.0,74308.5,7.05,1.51,1.51,0,*7B
1499270680.07,33511,18.0,74314.5,7.03,1.51,1.55,0,*78
1499270681.32,33512,18.0,74316.0,7.03,1.51,1.63,0,*7E
1499270682.53,33513,18.0,74312.3,7.05,1.63,1.75,0,*7F
1499270683.74,33514,18.0,74314.8,7.05,1.67,1.89,0,*7F
1499270685.0,33515,18.0,74312.8,7.07,1.71,1.85,0,*77
1499270686.24,33516,18.0,74318.8,7.07,1.59,1.71,0,*75
1499270687.49,33517,18.0,74318.3,7.07,1.47,1.59,0,*71
1499270688.74,33518,18.0,74316.3,7.07,1.25,1.55,0,*76
1499270689.97,33519,18.0,74318.8,7.09,1.25,1.55,0,*79
1499270691.19,33520,18.0,74318.3,7.09,1.25,1.47,0,*70
1499270692.42,33521,18.0,74320.3,7.09,1.09,1.47,0,*7F
1499270693.64,33522,18.0,74318.8,7.09,1.09,1.47,0,*7C
1499270694.87,33523,18.0,74320.8,7.09,1.09,1.59,0,*72
1499270696.12,33524,18.0,74322.8,7.11,1.29,1.71,0,*74
1499270697.37,33525,18.0,74316.5,7.11,1.25,1.67,0,*7E
1499270698.62,33526,18.0,74318.5,7.11,1.13,1.59,0,*75
1499270699.87,33527,18.0,74318.5,7.11,1.13,1.63,0,*7D
1499270701.09,33528,18.0,74316.0,7.13,1.13,1.75,0,*77
1499270702.28,33529,18.0,74316.5,7.13,1.01,1.67,0,*76
1499270703.5,33530,18.0,74316.5,7.13,0.71,1.33,0,*49
1499270704.69,33531,18.0,74318.8,7.13,0.43,1.21,0,*4A
1499270705.88,33532,18.0,74314.0,7.13,0.43,1.13,0,*48
1499270707.12,33533,18.0,74318.3,7.15,0.33,1.21,0,*49
1499270708.36,33534,18.0,74318.8,7.15,0.21,0.95,0,*73
1499270709.61,33535,18.0,74316.5,7.15,0.29,1.21,0,*44
1499270710.79,33536,18.0,74320.0,7.15,0.43,1.41,0,*4D
1499270712.04,33537,18.0,74316.5,7.15,0.47,1.51,0,*49
1499270713.28,33538,18.0,74318.3,7.15,0.37,1.43,0,*42
1499270714.49,33539,18.0,74316.3,7.17,0.41,1.47,0,*44
1499270715.74,33540,18.0,74318.8,7.15,0.21,1.29,0,*46
1499270716.94,33541,18.0,74318.8,7.17,0.37,1.59,0,*45
1499270718.19,33542,18.0,74314.5,7.15,0.59,1.63,0,*45
1499270719.4,33543,18.0,74316.3,7.17,0.59,1.67,0,*42
1499270720.62,33544,18.0,74318.5,7.17,0.51,1.71,0,*4A
1499270721.86,33545,18.0,74314.8,7.19,0.47,1.67,0,*45
1499270723.07,33546,18.0,74316.5,7.17,0.41,1.67,0,*4E
1499270724.28,33547,18.0,74314.8,7.17,0.33,1.55,0,*4B
1499270725.49,33548,18.0,74318.5,7.17,0.33,1.47,0,*47
1499270726.71,33549,18.0,74318.5,7.17,0.47,1.59,0,*4A
1499270727.93,33550,18.0,74314.5,7.17,0.51,1.55,0,*49
1499270729.14,33551,18.0,74314.8,7.17,0.59,1.67,0,*41
1499270730.35,33552,18.0,74318.3,7.17,0.71,1.71,0,*4F
1499270731.59,33553,18.0,74314.8,7.19,0.71,1.67,0,*47
1499270732.83,33554,18.0,74322.0,7.19,0.71,1.59,0,*4D
1499270734.07,33555,18.0,74318.5,7.19,0.95,1.67,0,*4B
1499270735.3,33556,18.0,74320.0,7.21,0.91,1.59,0,*4A
1499270736.52,33557,18.0,74316.5,7.21,0.91,1.59,0,*4B
1499270737.72,33558,18.0,74320.8,7.21,0.91,1.41,0,*4D
1499270738.92,33559,18.0,74320.0,7.21,1.01,1.47,0,*72
1499270740.13,33560,18.0,74318.5,7.25,1.05,1.33,0,*7B
1499270741.37,33561,18.0,74322.5,7.21,1.29,1.37,0,*74
1499270742.61,33562,18.0,74320.0,7.21,1.21,1.37,0,*7F
1499270743.84,33563,18.0,74322.3,7.25,1.25,1.17,0,*7C
1499270745.06,33564,18.0,74322.0,7.25,1.43,1.33,0,*7D
1499270746.3,33565,18.0,74322.3,7.27,1.33,1.05,0,*7C
1499270747.52,33566,18.0,74322.3,7.27,1.25,1.01,0,*7C
1499270748.77,33567,18.0,74322.0,7.27,1.25,0.79,0,*43
1499270750.01,33568,18.0,74320.3,7.29,1.13,0.63,0,*4C
1499270751.21,33569,18.0,74316.8,7.29,1.05,0.51,0,*4B
1499270752.43,33570,18.0,74320.8,7.29,0.71,0.13,0,*77
1499270753.62,33571,18.0,74320.8,7.29,0.59,-0.03,0,*60
1499270754.83,33572,18.0,74316.8,7.29,0.51,-0.15,0,*5C
1499270756.02,33573,18.0,74322.5,7.29,0.71,-0.03,0,*68
1499270757.22,33574,18.0,74316.5,7.29,0.71,-0.03,0,*6F
1499270758.42,33575,18.0,74318.3,7.29,0.75,-0.11,0,*59
1499270759.62,33576,18.0,74322.0,7.29,0.51,-0.29,0,*57
1499270760.82,33577,18.0,74318.8,7.29,0.59,-0.41,0,*50
1499270762.04,33578,18.0,74316.5,7.31,0.37,-0.49,0,*56
1499270763.26,33579,18.0,74316.5,7.31,0.25,-0.73,0,*5D
1499270764.47,33580,18.0,74318.3,7.31,0.33,-0.61,0,*5F
1499270765.68,33581,18.0,74316.3,7.31,0.33,-0.61,0,*5E
1499270766.9,33582,18.0,74312.5,7.31,0.33,-0.65,0,*59
1499270768.11,33583,18.0,74312.3,7.31,0.33,-0.53,0,*5D
1499270769.31,33584,18.0,74314.0,7.31,0.09,-0.77,0,*65
1499270770.51,33585,18.0,74314.8,7.31,0.01,-0.97,0,*62
1499270771.73,33586,18.0,74314.5,7.31,-0.03,-0.97,0,*4E
1499270772.94,33587,18.0,74312.8,7.33,-0.19,-1.09,0,*40
1499270774.18,33588,18.0,74312.0,7.33,-0.27,-1.09,0,*42
1499270775.4,33589,18.0,74312.8,7.35,-0.19,-0.93,0,*7A
1499270776.59,33590,18.0,74314.5,7.33,-0.45,-1.21,0,*45
1499270777.8,33591,18.0,74316.0,7.33,-0.33,-1.13,0,*44
1499270779.0,33592,18.0,74314.8,7.33,-0.33,-1.13,0,*47
1499270780.23,33593,18.0,74314.3,7.33,-0.23,-1.09,0,*4C
1499270781.44,33594,18.0,74316.5,7.35,-0.53,-1.21,0,*40
1499270782.68,33595,18.0,74316.3,7.33,-0.85,-1.47,0,*4C
1499270783.92,33596,18.0,74312.0,7.35,-0.97,-1.67,0,*48
1499270785.16,33597,18.0,74316.3,7.35,-1.29,-1.95,0,*70
1499270786.43,33598,18.0,74310.8,7.35,-1.39,-2.07,0,*76
1499270787.62,33599,18.0,74316.8,7.33,-1.79,-2.43,0,*75
1499270788.89,33600,18.0,74316.5,7.35,-1.43,-2.07,0,*79
1499270790.13,33601,18.0,74312.3,7.33,-1.35,-1.87,0,*74
1499270791.37,33602,18.0,74318.8,7.35,-1.55,-2.07,0,*7C
1499270792.56,33603,18.0,74316.5,7.33,-1.79,-2.19,0,*7A
1499270793.78,33604,18.0,74318.8,7.33,-1.99,-2.43,0,*7C
1499270795.02,33605,18.0,74318.3,7.35,-2.19,-2.55,0,*77
1499270796.24,33606,18.0,74318.8,7.33,-2.31,-2.59,0,*74
1499270797.46,33607,18.0,74316.3,7.33,-2.23,-2.47,0,*79
1499270798.67,33608,18.0,74318.8,7.35,-2.27,-2.31,0,*75
1499270799.88,33609,18.0,74314.5,7.35,-2.27,-2.43,0,*71
1499270801.1,33610,18.0,74314.8,7.33,-2.31,-2.55,0,*7F
1499270802.35,33611,18.0,74316.8,7.33,-2.47,-2.55,0,*7F
1499270803.61,33612,18.0,74316.5,7.35,-2.55,-2.59,0,*75
1499270804.86,33613,18.0,74314.8,7.33,-2.63,-2.63,0,*7E
1499270806.11,33614,18.0,74314.8,7.33,-2.71,-2.63,0,*7A
1499270807.35,33615,18.0,74312.8,7.33,-2.75,-2.71,0,*7C
1499270808.55,33616,18.0,74312.3,7.33,-2.95,-2.83,0,*7C
1499270809.76,33617,18.0,74314.5,7.35,-2.83,-2.83,0,*7C
1499270810.95,33618,18.0,74312.8,7.37,-3.15,-3.07,0,*72
1499270812.17,33619,18.0,74312.0,7.35,-3.15,-3.03,0,*75
1499270813.38,33620,18.0,74308.3,7.35,-3.27,-3.19,0,*75
1499270814.6,33621,18.0,74312.5,7.35,-3.39,-3.31,0,*71
1499270815.81,33622,18.0,74308.3,7.37,-3.47,-3.39,0,*71
1499270817.03,33623,18.0,74310.8,7.37,-3.55,-3.39,0,*73
1499270818.24,33624,18.0,74308.5,7.37,-3.55,-3.39,0,*74
1499270819.46,33625,18.0,74308.5,7.37,-3.55,-3.39,0,*75
1499270820.67,33626,18.0,74308.5,7.37,-3.43,-3.31,0,*79
1499270821.88,33627,18.0,74308.0,7.37,-3.47,-3.31,0,*7C
1499270823.12,33628,18.0,74306.8,7.39,-3.43,-3.23,0,*7A
1499270824.35,33629,18.0,74310.3,7.37,-3.71,-3.55,0,*75
1499270825.59,33630,18.0,74312.8,7.39,-3.63,-3.35,0,*76
1499270826.83,33631,18.0,74314.3,7.39,-3.67,-3.39,0,*7F
1499270828.07,33632,18.0,74312.8,7.39,-3.79,-3.43,0,*7E
1499270829.29,33633,18.0,74314.0,7.43,-3.75,-3.39,0,*73
1499270830.51,33634,18.0,74316.0,7.43,-3.83,-3.39,0,*7D
1499270831.77,33635,18.0,74318.8,7.43,-4.01,-3.47,0,*78
1499270833.03,33636,18.0,74318.3,7.43,-4.01,-3.47,0,*7B
1499270834.27,33637,18.0,74316.0,7.43,-4.25,-3.59,0,*73
1499270835.5,33638,18.0,74322.0,7.43,-4.17,-3.59,0,*7D
1499270836.73,33639,18.0,74316.5,7.43,-4.25,-3.47,0,*72
1499270837.95,33640,18.0,74322.5,7.47,-4.21,-3.35,0,*79
1499270839.17,33641,18.0,74318.3,7.47,-4.45,-3.43,0,*7B
1499270840.43,33642,18.0,74320.3,7.49,-4.81,-3.71,0,*7F
1499270841.68,33643,18.0,74322.0,7.47,-4.81,-3.59,0,*7A
1499270842.93,33644,18.0,74322.0,7.49,-4.81,-3.55,0,*7F
1499270844.16,33645,18.0,74322.5,7.51,-4.93,-3.63,0,*71
1499270845.43,33646,18.0,74324.0,7.53,-5.07,-3.59,0,*75
1499270846.65,33647,18.0,74320.0,7.51,-5.23,-3.79,0,*72
1499270847.83,33648,18.0,74320.5,7.51,-5.47,-3.87,0,*7E
1499270849.07,33649,18.0,74322.8,7.51,-5.69,-4.01,0,*7A
1499270850.29,33650,18.0,74324.0,7.51,-5.77,-3.91,0,*73
1499270851.5,33651,18.0,74324.8,7.51,-5.69,-3.87,0,*7A
1499270852.69,33652,18.0,74320.5,7.51,-6.09,-4.17,0,*72
1499270853.91,33653,18.0,74318.5,7.51,-6.27,-4.29,0,*72
1499270855.12,33654,18.0,74314.8,7.51,-6.27,-4.09,0,*77
1499270856.31,33655,18.0,74318.5,7.51,-6.13,-4.05,0,*7D
1499270857.5,33656,18.0,74316.8,7.51,-6.13,-3.91,0,*74
1499270858.71,33657,18.0,74312.3,7.51,-6.23,-3.91,0,*76
1499270859.93,33658,18.0,74314.8,7.51,-6.23,-3.87,0,*7E
1499270861.14,33659,18.0,74318.5,7.51,-6.35,-4.01,0,*71
1499270862.33,33660,18.0,74318.8,7.51,-6.55,-4.17,0,*7A
1499270863.52,33661,18.0,74318.8,7.51,-6.51,-4.05,0,*7C
1499270864.71,33662,18.0,74316.5,7.51,-6.69,-4.17,0,*77
1499270865.91,33663,18.0,74312.5,7.51,-6.63,-4.05,0,*7F
1499270867.13,33664,18.0,74318.5,7.47,-6.59,-4.09,0,*7A
1499270868.34,33665,18.0,74312.8,7.49,-6.55,-4.09,0,*79
1499270869.56,33666,18.0,74314.3,7.47,-6.51,-4.05,0,*7C
1499270870.77,33667,18.0,74312.8,7.49,-6.43,-3.95,0,*7E
1499270871.99,33668,18.0,74312.8,7.49,-6.55,-4.09,0,*74
1499270873.21,33669,18.0,74312.3,7.49,-6.43,-4.09,0,*72
1499270874.42,33670,18.0,74314.8,7.47,-6.73,-4.33,0,*7E
1499270875.63,33671,18.0,74316.8,7.47,-6.73,-4.25,0,*78
1499270876.85,33672,18.0,74314.8,7.47,-6.43,-4.13,0,*7D
1499270878.06,33673,18.0,74310.8,7.43,-6.55,-4.17,0,*7B
1499270879.27,33674,18.0,74308.0,7.43,-6.55,-4.25,0,*7D
1499270880.48,33675,18.0,74304.3,7.43,-6.43,-4.17,0,*7A
1499270881.71,33676,18.0,74302.0,7.43,-6.63,-4.49,0,*70
1499270882.92,33677,18.0,74300.8,7.41,-6.89,-4.85,0,*77
1499270884.11,33678,18.0,74300.5,7.41,-6.85,-4.65,0,*7A
1499270885.32,33679,18.0,74304.0,7.41,-6.89,-4.77,0,*74
1499270886.53,33680,18.0,74304.3,7.41,-6.89,-4.85,0,*7F
1499270887.72,33681,18.0,74306.5,7.41,-6.73,-4.49,0,*7B
1499270888.93,33682,18.0,74304.5,7.39,-6.51,-4.45,0,*7B
1499270890.16,33683,18.0,74312.3,7.39,-6.63,-4.45,0,*7B
1499270891.38,33684,18.0,74306.5,7.39,-6.59,-4.41,0,*71
1499270892.59,33685,18.0,74302.3,7.39,-6.69,-4.45,0,*77
1499270893.8,33686,18.0,74292.5,7.41,-6.89,-4.73,0,*70
1499270895.05,33687,18.0,74296.8,7.37,-7.61,-5.23,0,*73
1499270896.27,33688,18.0,74294.8,7.37,-7.11,-4.69,0,*74
1499270897.5,33689,18.0,74302.3,7.37,-7.57,-5.35,0,*7F
1499270898.76,33690,18.0,74302.3,7.35,-8.11,-5.65,0,*7D
1499270900.01,33691,18.0,74300.3,7.33,-8.03,-5.27,0,*7F
1499270901.27,33692,18.0,74298.8,7.31,-7.65,-4.81,0,*7C
1499270902.49,33693,18.0,74304.8,7.29,-7.05,-4.25,0,*7C
1499270903.73,33694,18.0,74302.0,7.31,-6.89,-4.01,0,*71
1499270904.99,33695,18.0,74304.3,7.31,-7.05,-4.01,0,*75
1499270906.22,33696,18.0,74304.3,7.29,-6.63,-3.47,0,*7B
1499270907.41,33697,18.0,74304.0,7.33,-6.09,-2.83,0,*74
1499270908.6,33698,18.0,74308.8,7.33,-6.59,-3.23,0,*75
1499270909.79,33699,18.0,74310.3,7.33,-6.35,-2.87,0,*71
1499270910.99,33700,18.0,74308.3,7.33,-6.35,-2.83,0,*74
1499270912.18,33701,18.0,74306.8,7.33,-6.73,-2.95,0,*70
1499270913.4,33702,18.0,74304.8,7.33,-6.55,-2.71,0,*7D
1499270914.62,33703,18.0,74302.8,7.33,-6.05,-2.11,0,*7F
1499270915.84,33704,18.0,74302.0,7.33,-5.97,-2.07,0,*77
1499270917.08,33705,18.0,74300.5,7.35,-5.77,-1.71,0,*7C
1499270918.35,33706,18.0,74300.8,7.35,-5.61,-1.43,0,*79
1499270919.59,33707,18.0,74304.0,7.35,-5.51,-1.39,0,*76
1499270920.81,33708,18.0,74302.0,7.35,-5.47,-1.29,0,*7F
1499270922.0,33709,18.0,74298.5,7.37,-5.39,-1.17,0,*78
1499270923.22,33710,18.0,74298.5,7.37,-5.07,-0.77,0,*4A
1499270924.44,33711,18.0,74300.8,7.39,-4.93,-0.65,0,*4A
1499270925.67,33712,18.0,74296.5,7.39,-4.89,-0.61,0,*46
1499270926.88,33713,18.0,74298.0,7.39,-4.99,-0.73,0,*45
1499270928.14,33714,18.0,74296.8,7.39,-5.07,-0.85,0,*4D
1499270929.34,33715,18.0,74302.0,7.41,-4.85,-0.69,0,*4A
1499270930.55,33716,18.0,74300.3,7.39,-4.33,-0.29,0,*4F